Wind_Speed
27 30 28 29 28 26 28 31 33 39 42 42 32 29 23 23 24 24 28 26 20 19 19 26 30 28 23 15 22 33 26 25 27 25 25 27 28 28 29 28 26 17 18 14 14 16 19
27 29 29 29 29 28 27 30 32 37 40 43 35 32 22 24 25 34 29 26 23 19 27 21 18 14 22 22 31 27 26 24 23 24 25 26 28 23 25 25 23 18 18 16 17 16 16
27 27 29 30 29 29 28 29 30 32 36 40 38 36 28 29 31 29 28 28 37 29 22 18 20 23 24 20 27 27 24 23 22 22 22 23 24 20 24 22 22 17 17 17 17 17 16
24 26 28 30 30 30 29 29 29 29 34 35 42 32 31 28 26 27 30 40 37 31 33 26 28 15 33 29 30 29 22 21 22 21 18 21 21 15 22 20 22 16 17 16 16 16 17
28 24 26 28 30 31 31 29 27 27 30 33 38 37 33 27 28 23 26 30 35 29 34 25 23 15 34 35 32 27 22 21 22 21 18 18 19 16 19 16 20 17 13 18 13 16 17
31 24 25 27 28 30 32 31 28 26 25 29 29 37 33 28 28 25 24 26 28 38 32 31 22 23 29 30 28 25 23 22 22 20 19 17 15 16 15 16 13 12 8 14 15 14 17
33 29 23 25 27 29 30 31 30 27 24 24 23 30 32 32 26 23 20 38 46 41 37 32 30 32 29 26 25 21 21 20 20 19 18 15 14 15 14 13 8 10 12 7 11 15 16
35 32 28 23 26 28 30 30 30 29 26 22 22 21 27 27 33 32 22 36 45 42 40 32 30 28 25 23 22 20 18 19 18 17 16 16 14 14 12 10 7 7 8 8 9 11 15
33 35 31 26 23 26 28 29 30 29 27 25 19 16 18 20 26 29 30 35 39 36 38 31 27 25 25 20 22 20 17 18 15 16 15 16 16 14 12 11 8 6 6 6 8 11 17
29 33 34 30 25 23 26 27 28 29 28 27 23 17 12 9 14 15 15 19 21 19 17 17 17 16 18 20 18 16 16 18 20 16 14 8 14 11 10 8 6 5 4 7 10 11 7
24 29 32 33 28 23 23 25 26 28 28 27 26 22 15 12 4 4 7 6 2 5 5 6 15 11 5 8 17 12 13 13 15 19 7 10 12 11 9 7 6 5 6 8 10 12 13
22 24 28 31 31 27 22 22 24 25 27 27 26 25 18 13 8 6 8 8 5 4 5 6 11 13 11 13 14 16 12 14 12 7 9 15 13 9 7 5 5 4 5 8 10 9 3
21 22 23 27 29 29 26 21 21 22 23 25 25 24 23 17 13 9 9 5 3 9 8 8 12 13 15 15 14 13 12 9 9 10 13 12 9 7 7 6 4 2 2 2 3 2 5
18 20 21 22 26 28 28 26 20 19 20 21 22 23 21 20 17 14 11 9 14 7 9 13 12 14 15 13 10 7 7 8 7 8 13 5 5 7 6 4 3 2 2 2 5 1 5
15 17 19 20 21 24 26 27 26 19 16 17 18 19 20 20 14 15 12 15 8 9 11 10 9 7 8 10 8 8 9 7 7 8 2 5 5 8 7 5 4 4 3 3 2 1 4
14 14 16 17 18 20 23 25 26 24 17 13 14 14 15 17 16 13 10 17 11 12 7 3 2 3 5 6 3 4 4 4 5 4 4 6 5 9 8 7 7 6 5 3 2 1 4
15 14 14 16 16 18 20 23 25 25 23 16 11 10 11 12 12 12 15 16 11 8 5 4 5 4 3 3 3 3 3 4 4 3 3 6 2 7 8 8 7 10 8 7 4 3 3
14 14 14 14 14 15 18 20 23 25 25 21 14 9 9 9 7 9 12 11 10 9 8 7 6 4 2 3 4 4 3 1 2 2 3 2 2 4 5 7 9 11 11 9 5 5 7
14 13 13 12 13 13 15 17 19 22 23 23 17 13 9 7 5 7 7 7 7 4 3 2 2 2 1 2 3 3 2 2 3 3 3 2 2 2 2 8 13 17 17 19 18 15 14
13 11 11 11 11 13 14 15 18 20 22 23 20 15 13 9 6 4 3 2 2 3 3 2 1 2 2 1 1 1 2 3 4 6 7 7 7 8 8 8 12 16 19 18 21 14 17
15 13 11 10 10 11 13 15 18 19 20 22 22 17 15 11 8 6 4 3 3 3 4 4 4 4 4 3 3 6 5 7 8 10 9 9 12 17 18 18 23 29 31 31 34 36 31
19 17 15 13 12 12 13 15 18 21 21 22 22 20 15 12 11 8 6 6 7 7 8 7 8 8 8 7 8 10 10 11 11 11 10 14 14 20 32 24 19 25 26 27 34 40 46
22 21 19 15 12 12 13 17 20 21 22 22 20 20 19 14 11 11 9 6 8 8 9 11 12 12 13 11 14 15 16 15 17 19 20 21 18 16 13 14 25 27 4 5 10 16 21
24 24 23 20 17 18 19 21 27 28 25 23 21 18 18 16 13 12 11 8 8 10 12 12 14 16 15 16 18 20 22 25 26 26 26 26 22 16 18 19 3 4 12 26 26 21 20
26 25 25 24 23 23 23 27 32 29 25 23 21 19 17 16 17 13 9 13 11 12 12 12 12 13 15 17 18 13 12 13 16 20 24 24 24 11 7 8 25 15 3 5 13 18 18
31 28 27 28 28 28 27 29 32 27 25 23 22 21 18 18 12 18 15 11 13 15 11 10 9 9 12 13 11 6 4 5 5 5 8 12 17 18 5 5 5 7 10 15 18 11 5
36 34 32 31 30 29 29 33 32 29 26 24 23 22 21 20 16 15 18 19 17 15 13 13 15 15 14 13 11 9 8 8 5 5 6 11 13 24 21 11 18 20 14 11 10 9 12
39 39 36 33 32 31 31 33 31 29 26 23 22 22 22 22 20 16 14 11 12 12 14 15 16 14 12 11 7 8 8 8 9 12 9 9 8 13 14 11 11 5 22 21 28 36 40
41 41 38 34 33 33 35 36 33 31 26 25 24 23 23 21 21 22 23 22 19 18 18 15 12 10 7 7 7 6 11 13 16 12 18 16 18 13 16 11 23 36 36 37 40 40 37
Wind_Direction
27 26 25 22 17 14 15 16 18 16 14 18 28 29 28 30 31 39 46 64 84 108 152 164 167 173 181 172 158 150 154 162 165 174 175 174 174 178 179 186 185 187 194 188 184 190 198
28 27 26 25 17 14 14 15 20 20 17 18 32 33 36 29 46 61 52 45 72 93 122 135 176 161 177 172 148 147 156 161 164 170 174 173 173 172 185 184 184 185 195 188 186 191 198
31 27 27 26 21 15 16 18 21 24 21 20 31 45 48 37 58 60 63 50 91 123 133 128 147 184 170 144 146 148 156 157 159 167 171 173 173 175 175 181 186 188 193 193 196 204 217
32 29 28 28 23 20 17 20 22 25 28 24 31 46 48 38 57 55 64 59 65 102 148 113 125 137 154 146 151 142 143 150 155 156 164 169 174 171 178 178 184 186 196 202 208 216 227
31 30 29 29 27 24 21 23 26 25 35 29 33 38 57 51 50 64 72 69 67 93 136 126 132 150 145 145 135 135 140 146 147 146 153 159 166 176 178 180 182 187 205 207 217 228 236
28 30 29 31 29 27 25 23 28 29 33 43 39 42 59 51 59 81 81 68 66 83 123 135 129 140 129 131 130 139 142 145 145 145 152 155 161 164 172 181 184 200 202 209 219 234 241
28 28 27 30 30 30 29 29 28 31 33 47 50 49 61 57 67 70 73 93 89 87 104 109 113 116 117 121 126 137 144 148 153 157 159 161 159 162 171 182 197 213 219 224 230 243 256
26 27 28 27 30 30 30 30 33 33 33 37 64 64 67 77 82 85 85 88 86 87 92 97 100 108 125 129 130 135 145 153 155 158 161 156 159 160 168 178 186 189 206 227 247 257 266
23 27 26 25 28 31 32 30 31 32 33 36 45 80 85 89 92 92 86 81 85 91 89 88 92 100 109 125 129 132 142 147 146 156 159 165 156 162 171 178 182 183 209 239 268 285 290
22 26 26 26 24 28 33 32 30 30 33 31 36 50 87 85 96 99 87 87 82 74 75 72 91 88 105 108 115 128 146 148 147 157 154 154 159 164 175 182 183 203 244 274 286 296 291
23 21 26 26 26 24 29 32 31 29 29 32 29 32 46 61 91 102 101 65 7 22 60 47 64 107 118 109 126 129 139 140 147 148 160 151 155 158 174 183 197 232 258 277 286 290 298
21 24 22 25 25 28 24 31 32 31 29 28 32 27 30 49 61 61 55 65 68 77 53 82 84 84 111 121 125 124 131 139 138 149 135 146 150 158 173 172 192 223 265 285 286 291 285
11 22 23 23 23 26 29 25 30 32 32 31 28 33 28 27 41 41 48 41 76 67 117 98 98 99 97 103 113 121 129 125 132 126 135 134 147 154 162 167 180 220 275 310 339 353 226
9 10 20 22 23 24 27 28 26 28 32 32 34 29 27 26 17 16 34 57 66 99 108 125 108 103 86 95 94 129 128 131 150 147 137 150 157 157 165 179 186 173 187 180 211 261 285
9 6 11 18 21 22 24 28 27 24 26 34 35 37 35 31 26 32 55 69 90 98 112 116 105 102 93 99 105 96 96 107 128 152 171 143 149 164 161 168 177 203 204 191 184 286 293
359 8 2 10 16 20 20 22 28 25 20 23 32 39 44 45 36 44 77 85 101 109 107 54 54 91 115 108 107 109 101 105 104 141 164 159 143 179 190 209 220 221 217 200 218 202 278
344 358 359 360 7 13 18 18 20 23 22 17 22 32 41 47 53 55 72 93 98 94 70 62 75 94 104 69 77 74 94 101 103 125 159 169 190 196 209 231 236 222 223 220 199 179 191
335 343 350 351 356 3 11 17 17 16 17 21 19 19 29 42 48 65 80 76 86 90 90 87 71 79 74 54 26 22 49 39 49 83 119 188 201 224 228 232 230 234 244 236 222 209 222
325 335 337 343 342 348 358 7 11 12 15 13 18 17 12 25 35 53 76 93 103 89 80 94 112 114 88 43 27 29 14 17 353 340 344 332 268 261 255 248 252 252 255 251 246 255 238
311 320 325 335 338 339 346 350 356 3 8 10 10 9 9 6 11 21 33 52 110 130 137 135 147 145 148 161 267 284 291 310 314 305 297 297 272 261 258 283 282 275 274 268 251 240 244
295 303 309 318 331 339 342 346 349 353 359 1 3 2 0 353 355 335 311 297 270 266 256 237 224 233 241 243 243 243 259 280 288 291 288 282 282 288 285 286 282 276 269 262 253 256 248
292 296 298 303 316 330 337 344 348 348 352 351 348 352 349 346 344 339 316 293 268 267 265 263 260 256 254 260 267 279 279 284 283 284 279 282 280 294 298 305 285 280 273 262 259 259 260
284 288 291 299 308 318 331 340 342 342 343 346 349 341 340 337 334 327 317 297 289 273 274 269 264 264 268 267 269 272 272 268 269 274 277 278 281 292 285 296 300 291 279 261 280 268 280
276 280 284 289 294 301 312 326 331 331 330 329 331 329 326 329 324 320 312 302 289 279 276 277 275 273 271 272 275 278 278 274 268 266 265 267 276 287 291 308 307 270 278 297 295 295 294
266 271 277 281 288 294 303 315 323 321 315 313 312 311 312 314 316 305 295 299 286 290 286 279 275 279 278 279 290 297 287 283 271 262 254 254 253 260 268 283 288 294 261 352 326 323 302
264 262 268 275 283 291 300 311 318 315 311 306 303 299 299 305 307 299 292 283 286 293 285 282 270 285 287 283 286 263 263 271 267 263 247 239 229 225 280 292 270 316 303 307 321 342 9
266 267 268 274 283 292 299 311 316 314 306 301 298 293 290 298 301 294 283 283 282 274 274 288 290 285 277 272 263 262 251 243 247 253 243 216 215 224 231 248 275 300 303 334 321 324 315
263 266 271 277 283 288 297 308 309 309 301 297 295 292 292 291 300 299 294 278 270 267 271 279 287 278 262 251 249 244 247 245 254 254 261 265 248 218 206 217 269 339 327 315 306 302 300
262 264 267 269 273 283 293 300 297 297 291 293 292 294 294 293 297 299 295 284 279 272 268 263 255 265 250 255 255 265 264 266 267 264 272 261 264 253 240 263 288 302 310 308 306 298 298
Height
3109 3103 3097 3090 3084 3079 3073 3069 3064 3057 3050 3039 3031 3023 3018 3013 3006 3000 2995 2991 2990 2991 2994 2999 3006 3015 3018 3027 3031 3039 3048 3055 3060 3066 3071 3076 3081 3087 3094 3099 3105 3109 3113 3117 3120 3123 3126
3110 3105 3099 3092 3087 3082 3076 3071 3067 3062 3054 3044 3035 3027 3023 3018 3013 3008 3004 2998 2996 2998 3000 3008 3014 3021 3030 3036 3037 3045 3051 3057 3063 3069 3074 3079 3083 3089 3095 3100 3106 3110 3114 3116 3119 3122 3125
3112 3107 3100 3095 3089 3085 3079 3074 3070 3065 3059 3050 3041 3034 3030 3026 3021 3017 3012 3006 3002 3005 3005 3013 3020 3029 3030 3039 3043 3050 3056 3061 3067 3072 3077 3083 3087 3091 3095 3102 3107 3111 3114 3116 3119 3122 3124
3115 3109 3103 3097 3092 3087 3082 3077 3072 3068 3064 3057 3048 3041 3036 3034 3030 3026 3021 3016 3012 3011 3013 3021 3023 3031 3038 3043 3050 3056 3062 3066 3071 3075 3081 3085 3089 3094 3098 3100 3107 3111 3114 3116 3118 3121 3122
3117 3112 3106 3100 3095 3090 3085 3080 3076 3071 3069 3062 3055 3047 3043 3041 3037 3033 3029 3024 3023 3022 3027 3030 3036 3041 3044 3049 3055 3061 3067 3071 3074 3078 3083 3088 3092 3096 3100 3102 3108 3110 3112 3114 3117 3118 3120
3121 3115 3110 3104 3098 3094 3088 3084 3079 3075 3072 3069 3063 3058 3050 3048 3044 3042 3038 3035 3031 3034 3035 3039 3043 3050 3053 3055 3061 3066 3071 3074 3078 3082 3087 3091 3094 3096 3101 3104 3107 3110 3113 3113 3115 3117 3117
3125 3119 3114 3108 3103 3097 3093 3088 3083 3078 3076 3074 3070 3066 3061 3056 3051 3051 3048 3045 3043 3045 3045 3048 3053 3055 3058 3064 3068 3071 3075 3078 3081 3085 3089 3093 3095 3098 3102 3105 3108 3111 3112 3112 3113 3114 3115
3129 3123 3117 3113 3108 3102 3097 3093 3087 3082 3079 3077 3076 3072 3070 3065 3060 3059 3062 3052 3047 3052 3054 3059 3061 3063 3065 3069 3072 3075 3079 3082 3085 3088 3092 3095 3097 3100 3103 3106 3108 3110 3111 3112 3113 3112 3112
3133 3128 3122 3116 3111 3106 3101 3097 3092 3088 3083 3080 3079 3078 3075 3073 3068 3065 3066 3064 3061 3063 3061 3068 3070 3071 3073 3077 3076 3079 3082 3085 3088 3090 3093 3096 3099 3101 3103 3105 3107 3109 3111 3112 3112 3111 3110
3137 3131 3126 3120 3115 3111 3106 3101 3097 3093 3088 3083 3080 3080 3080 3077 3075 3071 3071 3071 3070 3070 3070 3078 3078 3080 3081 3080 3082 3083 3085 3088 3088 3092 3095 3098 3100 3101 3104 3106 3108 3109 3110 3111 3110 3110 3109
3140 3135 3129 3124 3119 3114 3110 3106 3101 3096 3093 3090 3085 3080 3080 3080 3078 3074 3075 3073 3072 3072 3078 3087 3085 3085 3084 3086 3087 3089 3090 3091 3092 3093 3097 3099 3100 3102 3105 3106 3107 3108 3109 3110 3109 3108 3107
3143 3138 3133 3128 3123 3117 3113 3109 3106 3101 3097 3094 3090 3085 3081 3082 3081 3079 3076 3074 3075 3077 3085 3090 3089 3089 3088 3088 3089 3090 3092 3094 3095 3096 3097 3099 3101 3103 3104 3105 3106 3107 3108 3108 3107 3106 3106
3144 3140 3136 3131 3127 3122 3117 3113 3109 3106 3103 3098 3094 3091 3087 3083 3083 3082 3079 3078 3077 3078 3093 3095 3093 3092 3090 3091 3092 3093 3095 3095 3095 3099 3100 3101 3102 3103 3104 3104 3105 3106 3108 3108 3110 3108 3105
3146 3142 3138 3135 3130 3126 3120 3116 3112 3109 3106 3103 3100 3095 3092 3088 3084 3083 3081 3079 3078 3090 3089 3093 3094 3094 3094 3094 3095 3096 3096 3096 3097 3097 3099 3101 3105 3103 3103 3105 3105 3105 3107 3107 3114 3112 3103
3147 3143 3139 3136 3133 3129 3124 3120 3116 3112 3109 3106 3104 3101 3097 3094 3090 3089 3087 3083 3091 3094 3096 3097 3097 3096 3095 3096 3098 3098 3097 3098 3099 3099 3101 3100 3101 3102 3103 3104 3106 3105 3105 3107 3106 3106 3106
3147 3144 3141 3137 3135 3131 3127 3123 3118 3115 3111 3108 3107 3104 3101 3098 3096 3094 3093 3091 3095 3097 3098 3099 3099 3098 3098 3099 3099 3098 3099 3100 3100 3100 3100 3100 3101 3101 3102 3103 3104 3104 3106 3105 3105 3107 3106
3147 3145 3142 3138 3136 3132 3129 3126 3122 3118 3114 3111 3108 3106 3104 3102 3101 3100 3097 3097 3098 3099 3100 3100 3100 3101 3101 3100 3100 3099 3100 3100 3099 3099 3100 3100 3102 3103 3103 3101 3101 3102 3102 3103 3104 3104 3104
3147 3144 3141 3139 3136 3133 3130 3127 3124 3120 3117 3113 3110 3108 3106 3105 3105 3101 3099 3100 3101 3101 3100 3100 3101 3102 3102 3102 3102 3101 3101 3101 3100 3100 3100 3100 3100 3100 3101 3100 3100 3100 3100 3101 3101 3102 3100
3145 3142 3140 3138 3135 3133 3131 3128 3125 3122 3118 3115 3111 3109 3107 3106 3104 3103 3102 3102 3101 3102 3102 3102 3102 3102 3103 3103 3104 3103 3102 3102 3102 3102 3102 3102 3100 3100 3099 3101 3099 3097 3097 3098 3098 3098 3093
3141 3139 3137 3135 3134 3132 3130 3128 3125 3122 3118 3116 3113 3111 3109 3107 3105 3104 3103 3103 3103 3102 3101 3102 3103 3102 3103 3103 3103 3103 3103 3103 3102 3102 3101 3101 3099 3099 3098 3097 3096 3094 3093 3094 3094 3091 3085
3137 3135 3134 3132 3131 3130 3128 3126 3124 3121 3118 3117 3113 3112 3109 3107 3105 3104 3104 3103 3103 3102 3102 3101 3101 3102 3102 3102 3101 3101 3102 3102 3101 3100 3099 3099 3096 3095 3094 3093 3090 3086 3084 3084 3081 3080 3077
3135 3133 3132 3130 3129 3128 3127 3124 3122 3120 3118 3117 3113 3112 3109 3107 3105 3104 3103 3103 3102 3102 3102 3101 3101 3100 3100 3100 3100 3100 3099 3099 3098 3097 3096 3094 3092 3089 3083 3084 3080 3074 3072 3071 3069 3069 3064
3131 3130 3129 3128 3126 3125 3123 3121 3119 3117 3116 3114 3112 3110 3108 3106 3104 3103 3102 3100 3100 3100 3101 3100 3099 3099 3099 3099 3097 3096 3095 3094 3093 3093 3093 3092 3090 3087 3076 3076 3073 3064 3058 3058 3058 3058 3057
3125 3125 3125 3123 3122 3121 3119 3117 3116 3114 3112 3111 3109 3108 3106 3104 3101 3101 3099 3098 3097 3096 3096 3097 3097 3096 3096 3095 3094 3092 3091 3089 3087 3087 3087 3086 3087 3088 3080 3076 3072 3058 3055 3055 3054 3053 3052
3118 3118 3119 3119 3117 3116 3115 3113 3111 3109 3107 3105 3104 3103 3102 3100 3098 3097 3096 3095 3094 3092 3092 3091 3091 3091 3091 3091 3090 3087 3085 3083 3080 3079 3079 3080 3083 3084 3080 3075 3063 3053 3055 3055 3052 3050 3047
3112 3111 3111 3112 3112 3111 3109 3108 3106 3103 3102 3101 3100 3098 3097 3096 3094 3093 3092 3091 3090 3089 3087 3086 3086 3086 3086 3085 3086 3084 3081 3080 3078 3076 3075 3076 3078 3082 3081 3080 3068 3056 3055 3053 3052 3047 3046
3106 3106 3105 3104 3104 3104 3103 3102 3100 3099 3097 3096 3095 3094 3093 3091 3089 3088 3087 3086 3085 3085 3086 3084 3082 3082 3081 3079 3078 3080 3078 3076 3075 3074 3073 3071 3071 3070 3073 3073 3058 3054 3052 3052 3053 3054 3046
3097 3098 3098 3099 3099 3098 3096 3094 3093 3093 3092 3091 3091 3089 3089 3087 3085 3083 3082 3081 3080 3080 3079 3080 3080 3076 3076 3076 3075 3074 3072 3071 3070 3069 3068 3071 3069 3066 3067 3068 3056 3051 3052 3053 3050 3045 3041
3088 3089 3090 3090 3091 3091 3090 3090 3088 3088 3087 3085 3085 3084 3083 3083 3082 3079 3077 3075 3075 3075 3075 3074 3076 3075 3073 3073 3073 3072 3070 3068 3065 3063 3062 3064 3062 3060 3058 3051 3049 3047 3047 3045 3039 3033 3030